Вернуться в каталог

COSMOS 2139

GLONASS

АктивенНавигацияMEO
NORAD 21216·PAYLOAD·🇷🇺 Russia

Запущен Apr 4, 1991 с Baikonur Cosmodrome

Loading…

Ближайшие Пролёты (ближайшие 24 часа)

TLE

СвежийSource: Space-Track

Эпоха: Sep 14, 2026, 02:40 UTC

1 21216U 91025A   26257.11138448 -.00000038  00000-0  00000-0 0  9993
2 21216  64.3024 301.2816 0017702 220.6566 139.2810  2.13105675275826

Отслеживайте COSMOS 2139 в реальном времени с AllMySat

Download on the App Store